Location: Newark
(30.0333°N, 31.2167°E)
Time: 15:24:19
(UTC+00:00)

Tiros 1 despin weight - Pass Details

Date: 29 January 2020
Orbit: 594 x 642 km, 48.2° (Epoch: 27 February)

Event Time Altitude Azimuth Distance (km) Brightness Sun altitude
Rises 07:22:43 0° 249° (WSW) 2,826 ? 27.6°
Reaches altitude 10° 07:25:08 10° 258° (WSW) 1,932 ? 27.9°
Maximum altitude 07:29:14 36° 325° (NW) 961 ? 28.6°
Drops below altitude 10° 07:33:23 10° 33° (NNE) 1,962 ? 29.2°
Sets 07:35:52 0° 42° (NE) 2,877 ? 29.5°
